[[{"header":{"parameterUnit":"m.s-1","parameterCategory":1,"la1":30.2991,"la2":30.254,"lo1":-89.0895,"lo2":-89.0444,"dy":0.0017,"dx":0.0017,"nx":28,"ny":28,"refTime":"2025-07-21T09:00:00:Z","depth":0,"parameterNumber":2,"parameterNumberName":"U-component_of_WINDS"},"data":[0,0,0,0,0,0,0,0,0,0,0,0,0,0,0,0,0,0,0,0,0,0,0,0,0,0,0,0,0,0,0,0,0,0,0,0,0,0,0,0,0,0,0,0,0,0,0,0,0,0,0,0,0,0,0,0,0,0,1.8064,1.8065,0,1.8178,1.818,1.8181,1.8209,1.8209,1.8208,1.8207,1.833,1.8334,1.8338,0,0,0,0,0,0,0,0,0,0,0,0,0,1.7876,1.7879,1.8064,1.8065,1.8067,1.8178,1.818,1.8181,1.8209,1.8209,1.8208,1.8207,1.8328,1.8333,1.8338,0,0,0,0,0,0,0,0,0,0,0,0,0,1.7971,1.7881,1.8064,1.8094,1.8098,1.8178,1.818,1.8182,1.821,1.8209,1.8207,1.8206,1.8327,1.8333,1.8339,1.8398,0,0,1.8357,1.8359,0,0,0,0,0,0,0,0,1.7965,1.7978,1.8088,1.8092,1.8097,1.8178,1.8158,1.8254,1.821,1.8167,1.8207,1.8206,1.8281,1.829,1.8314,1.8404,1.8409,1.8357,1.8361,1.8363,1.8365,0,0,0,0,0,0,0,1.7959,1.7973,1.8109,1.809,1.8095,1.8104,1.8116,1.8177,1.8229,1.8171,1.8173,1.8186,1.8283,1.8309,1.8318,1.8411,1.8357,1.8362,1.8366,1.8368,1.8556,1.8557,0,0,0,0,0,0,1.7946,1.7967,1.8106,1.8113,1.8027,1.8108,1.8122,1.8153,1.8229,1.8239,1.8187,1.8187,1.8299,1.8311,1.8322,1.8397,1.8363,1.8369,1.8372,1.8554,1.8556,1.8558,0,0,0,0,0,0,1.7942,1.7958,1.8101,1.8041,1.806,1.8113,1.8148,1.8156,1.8182,1.8241,1.8251,1.8203,1.8299,1.8314,1.8379,1.8402,1.8372,1.8377,1.8553,1.8555,1.8557,1.8547,0,0,0,0,0,0,1.7937,1.7957,1.7978,1.8041,1.8063,1.8154,1.8149,1.8159,1.8191,1.8193,1.8259,1.8269,1.8299,1.837,1.8385,1.841,1.8382,1.8551,1.8554,1.8556,1.8546,1.8549,1.8552,0,0,0,0,0,1.793,1.7972,1.7979,1.7996,1.8091,1.8155,1.8168,1.82,1.8193,1.8216,1.8254,1.8266,1.8397,1.8376,1.8393,1.842,1.855,1.8553,1.8556,1.8545,1.8548,1.8552,0,0,0,0,0,0,1.7912,1.7981,1.7989,1.8053,1.8098,1.816,1.819,1.8203,1.8253,1.8252,1.8292,1.8307,1.8369,1.8401,1.8377,1.8482,1.8473,1.848,1.8459,1.8463,1.8466,1.8457,1.8387,0,0,0,0,0,1.7915,1.7961,1.8019,1.8069,1.8091,1.8137,1.8166,1.8187,1.8236,1.8256,1.8298,1.8347,1.8399,1.8433,1.8484,1.8551,1.8566,1.8578,1.8581,1.8583,1.8588,1.8627,1.8633,1.8568,1.8568,1.8568,0,0,1.7923,1.7966,1.7993,1.8067,1.8104,1.8152,1.8153,1.8203,1.8239,1.8264,1.8328,1.8361,1.8418,1.8484,1.8516,1.8513,1.861,1.8587,1.8588,1.8593,1.8631,1.8637,1.8643,1.857,1.857,1.857,0,0,1.7962,1.7998,1.8045,1.8082,1.8138,1.8168,1.8179,1.8239,1.8262,1.8326,1.8346,1.8391,1.8479,1.8519,1.8551,1.8606,1.8619,1.8621,1.8636,1.8674,1.8679,1.8684,1.8704,1.8711,1.8627,1.8627,1.8627,0,1.7965,1.8036,1.8067,1.8117,1.815,1.8172,1.8221,1.8256,1.8327,1.835,1.8345,1.8457,1.8497,1.8574,1.8587,1.8612,1.8627,1.8614,1.8675,1.868,1.8686,1.8706,1.8713,1.8626,1.8627,1.8627,1.8627,0,1.8038,1.8086,1.8118,1.8183,1.822,1.8268,1.8309,1.8343,1.836,1.8392,1.8458,1.8506,1.8568,1.8588,1.8607,1.8668,1.8664,1.8667,1.8659,1.8691,1.8711,1.8719,1.8626,1.8626,1.8626,1.8626,0,0,1.8069,1.8151,1.8162,1.8192,1.8256,1.8296,1.8346,1.8405,1.8433,1.8481,1.8526,1.86,1.8603,1.864,1.8663,1.8696,1.8737,1.8695,1.8697,1.8702,1.8809,1.8807,1.8815,1.8746,1.8748,1.8749,1.8805,0,1.8116,1.8205,1.8235,1.831,1.8356,1.8379,1.8423,1.8468,1.8499,1.8544,1.8579,1.8631,1.8631,1.8653,1.8686,1.8725,1.8759,1.8721,1.879,1.8792,1.8775,1.8825,1.8824,1.8874,1.8812,1.8814,1.8815,0,1.8183,1.823,1.8309,1.8367,1.8388,1.8427,1.8484,1.8526,1.8578,1.8599,1.8639,1.866,1.8716,1.8704,1.8782,1.8756,1.8786,1.8809,1.8812,1.882,1.8806,1.8836,1.889,1.8898,1.8827,1.8826,1.8825,0,1.8199,1.8282,1.8341,1.8366,1.8435,1.8462,1.8493,1.8544,1.8577,1.8628,1.865,1.8707,1.8738,1.8782,1.8819,1.8806,1.8895,1.8885,1.8914,1.8914,1.8933,1.8931,1.8993,1.895,1.895,1.895,1.895,0,1.8249,1.8296,1.8349,1.8385,1.8439,1.8474,1.8528,1.856,1.8605,1.8649,1.8673,1.8714,1.8759,1.8807,1.8836,1.8897,1.8911,1.8931,1.8938,1.8929,1.8927,1.895,1.8948,1.8952,1.8952,1.8951,1.8951,0,1.8276,1.8313,1.8378,1.8438,1.8454,1.8492,1.8544,1.8581,1.8612,1.8668,1.8683,1.8733,1.879,1.8831,1.8905,1.8925,1.8991,1.8998,1.8973,1.8977,1.9004,1.9001,1.9084,1.9097,1.9044,1.9045,1.9045,0,1.8306,1.8343,1.8407,1.8437,1.8467,1.8515,1.8549,1.8586,1.8621,1.8683,1.8713,1.8771,1.882,1.8911,1.8956,1.9013,1.9022,1.9047,1.9031,1.9021,1.9023,1.9021,1.9026,1.9049,1.905,1.905,1.905,0,1.8355,1.8372,1.8419,1.8473,1.8512,1.8557,1.8602,1.8626,1.8671,1.8709,1.8767,1.8805,1.888,1.8939,1.9,1.9034,1.9051,1.9055,1.9065,1.9056,1.9041,1.9051,1.8981,1.9053,1.9053,1.9053,1.9052,1.9052,1.8386,1.842,1.847,1.8522,1.856,1.8601,1.8639,1.8674,1.8723,1.8786,1.8805,1.8865,1.8918,1.9002,1.9037,1.9086,1.9085,1.9099,1.9103,1.9106,1.9106,1.9032,1.9097,1.9097,1.9097,1.9097,1.9097,0,1.8437,1.8471,1.8518,1.858,1.8621,1.8631,1.8681,1.8716,1.8768,1.8815,1.8862,1.893,1.8987,1.9035,1.9094,1.9125,1.9134,1.9139,1.9138,1.9146,1.9103,1.9089,1.9131,1.9131,1.9131,1.9131,1.9131,1.9131,1.8469,1.8528,1.855,1.8628,1.8662,1.872,1.8748,1.8787,1.8825,1.8898,1.8945,1.8975,1.9024,1.9087,1.914,1.9153,1.9174,1.9178,1.9193,1.9152,1.9149,1.9145,1.9132,1.9182,1.9182,1.9231,1.9232,1.9232]},{"header":{"parameterUnit":"m.s-1","parameterCategory":1,"la1":30.2991,"la2":30.254,"lo1":-89.0895,"lo2":-89.0444,"dy":0.0017,"dx":0.0017,"nx":28,"ny":28,"refTime":"2025-07-21T09:00:00:Z","depth":0,"parameterNumber":3,"parameterNumberName":"V-component_of_WINDS"},"data":[0,0,0,0,0,0,0,0,0,0,0,0,0,0,0,0,0,0,0,0,0,0,0,0,0,0,0,0,0,0,0,0,0,0,0,0,0,0,0,0,0,0,0,0,0,0,0,0,0,0,0,0,0,0,0,0,0,0,1.4552,1.4552,0,1.4545,1.4544,1.4544,1.4546,1.4547,1.4547,1.4547,1.4537,1.4537,1.4536,0,0,0,0,0,0,0,0,0,0,0,0,0,1.4564,1.4563,1.4552,1.4552,1.4552,1.4545,1.4544,1.4544,1.4546,1.4547,1.4547,1.4547,1.4537,1.4537,1.4536,0,0,0,0,0,0,0,0,0,0,0,0,0,1.4558,1.4563,1.4552,1.4552,1.4552,1.4545,1.4544,1.4544,1.4546,1.4547,1.4547,1.4547,1.4537,1.4537,1.4536,1.4528,0,0,1.4534,1.4534,0,0,0,0,0,0,0,0,1.4558,1.4557,1.4552,1.4552,1.4552,1.4547,1.4545,1.4539,1.4546,1.4548,1.4547,1.4547,1.454,1.4539,1.4537,1.4527,1.4527,1.4534,1.4534,1.4534,1.4533,0,0,0,0,0,0,0,1.4558,1.4557,1.4549,1.4552,1.4552,1.4551,1.455,1.4544,1.4543,1.4548,1.4548,1.4548,1.454,1.4538,1.4537,1.4527,1.4534,1.4534,1.4533,1.4533,1.4506,1.4505,0,0,0,0,0,0,1.4559,1.4558,1.4549,1.4549,1.4556,1.4551,1.455,1.4548,1.4543,1.4542,1.4547,1.4548,1.4539,1.4538,1.4537,1.4524,1.4534,1.4533,1.4533,1.4506,1.4506,1.4505,0,0,0,0,0,0,1.456,1.4559,1.455,1.4553,1.4552,1.455,1.4548,1.4548,1.4546,1.4542,1.4542,1.4546,1.4539,1.4537,1.4529,1.4524,1.4533,1.4532,1.4507,1.4506,1.4506,1.4501,0,0,0,0,0,0,1.456,1.4559,1.4557,1.4553,1.4552,1.4544,1.4548,1.4548,1.4545,1.4545,1.4541,1.454,1.4539,1.453,1.4529,1.4523,1.4532,1.4507,1.4506,1.4506,1.4501,1.45,1.4499,0,0,0,0,0,1.456,1.4556,1.4557,1.4556,1.455,1.4544,1.4543,1.4542,1.4545,1.4542,1.4539,1.454,1.4525,1.4529,1.4528,1.4522,1.4507,1.4507,1.4506,1.4502,1.45,1.4499,0,0,0,0,0,0,1.4559,1.4556,1.4556,1.4551,1.4547,1.4544,1.4541,1.4541,1.4536,1.4537,1.4535,1.4534,1.4525,1.4523,1.4528,1.4512,1.4516,1.4515,1.4514,1.4512,1.4511,1.4512,1.4531,0,0,0,0,0,1.4558,1.4554,1.4551,1.4547,1.4545,1.4543,1.454,1.454,1.4536,1.4534,1.4531,1.4526,1.452,1.4516,1.4511,1.4501,1.4498,1.4496,1.4495,1.4494,1.4493,1.4484,1.4482,1.4503,1.4503,1.4503,0,0,1.4556,1.4554,1.4552,1.4546,1.4544,1.4538,1.4542,1.4537,1.4532,1.4533,1.4525,1.4522,1.4517,1.4507,1.4503,1.4505,1.4486,1.4493,1.4492,1.4491,1.4483,1.4481,1.4479,1.4502,1.4502,1.4502,0,0,1.4549,1.4548,1.4543,1.454,1.4535,1.4534,1.4532,1.4528,1.4526,1.4518,1.4518,1.4511,1.4502,1.4497,1.4493,1.4481,1.4481,1.4479,1.4473,1.4465,1.4463,1.4461,1.4455,1.4453,1.4478,1.4478,1.4478,0,1.4547,1.4541,1.454,1.4534,1.4531,1.4531,1.4525,1.4521,1.4515,1.4512,1.4514,1.45,1.4496,1.4484,1.4481,1.4478,1.4475,1.448,1.4463,1.4462,1.4461,1.4454,1.4452,1.4478,1.4478,1.4478,1.4478,0,1.4537,1.4532,1.4528,1.4522,1.4518,1.4512,1.4508,1.4504,1.4503,1.45,1.449,1.4485,1.4477,1.4474,1.4474,1.4461,1.4462,1.4464,1.4468,1.4458,1.4452,1.445,1.4477,1.4477,1.4477,1.4477,0,0,1.4531,1.4523,1.4521,1.4517,1.4511,1.4506,1.4498,1.4491,1.4486,1.4481,1.4473,1.4463,1.4464,1.4459,1.4458,1.4451,1.4438,1.4453,1.4453,1.4449,1.442,1.4418,1.4416,1.4438,1.4438,1.4437,1.442,0,1.4523,1.4511,1.4509,1.4497,1.4491,1.449,1.4483,1.4477,1.4473,1.4466,1.4462,1.4454,1.4457,1.4454,1.4447,1.4441,1.4432,1.4443,1.4429,1.4428,1.4429,1.4413,1.4411,1.4395,1.4418,1.4418,1.4417,0,1.4513,1.4506,1.4494,1.4486,1.4483,1.4477,1.4468,1.4462,1.4454,1.4452,1.4445,1.4444,1.4433,1.4438,1.4422,1.4429,1.4423,1.4419,1.4418,1.4416,1.4422,1.4409,1.4391,1.4388,1.4414,1.4414,1.4415,0,1.4507,1.4496,1.4487,1.4483,1.4474,1.4469,1.4465,1.4457,1.4452,1.4443,1.4439,1.4429,1.4424,1.4415,1.441,1.4414,1.4393,1.4399,1.4389,1.4389,1.4385,1.4385,1.4364,1.4383,1.4383,1.4383,1.4383,0,1.4498,1.449,1.4484,1.4478,1.4468,1.4464,1.4454,1.445,1.4442,1.4434,1.4432,1.4424,1.4418,1.4408,1.4404,1.4389,1.4387,1.4383,1.4382,1.4383,1.4383,1.4378,1.4379,1.4382,1.4382,1.4383,1.4383,0,1.4491,1.4487,1.4476,1.4467,1.4464,1.4457,1.4449,1.4442,1.4437,1.4426,1.4423,1.4415,1.4403,1.4397,1.4383,1.4379,1.4362,1.4363,1.4365,1.4365,1.4355,1.4355,1.4329,1.4324,1.4348,1.4348,1.4347,0,1.4485,1.4479,1.4469,1.4463,1.4458,1.445,1.4443,1.4438,1.4432,1.442,1.4414,1.4402,1.4392,1.4372,1.4364,1.4352,1.435,1.4342,1.4349,1.4348,1.4348,1.4348,1.4346,1.4341,1.434,1.434,1.434,0,1.4475,1.4472,1.4464,1.4453,1.4446,1.4438,1.443,1.4425,1.4418,1.441,1.4397,1.4389,1.4373,1.436,1.4346,1.434,1.4338,1.4338,1.4335,1.4335,1.4336,1.4333,1.4361,1.4339,1.4339,1.4339,1.4339,1.4339,1.4467,1.446,1.4451,1.4441,1.4434,1.4425,1.4417,1.4411,1.4401,1.4387,1.4384,1.437,1.4359,1.434,1.4333,1.4321,1.4322,1.4318,1.4317,1.4316,1.4314,1.4339,1.4318,1.4318,1.4318,1.4318,1.4318,0,1.4455,1.4448,1.4439,1.4427,1.4418,1.4417,1.4406,1.4399,1.4387,1.4377,1.4366,1.435,1.4336,1.4326,1.4311,1.4303,1.4301,1.4299,1.4299,1.4297,1.4315,1.4318,1.43,1.43,1.43,1.43,1.43,1.43,1.4447,1.4435,1.4431,1.4413,1.4406,1.4393,1.4387,1.4378,1.4369,1.4351,1.434,1.4333,1.4322,1.4306,1.4292,1.4289,1.4283,1.4281,1.4277,1.4294,1.4296,1.4298,1.4301,1.428,1.428,1.426,1.426,1.426]}]]